Location: S�deilles
(46.7500°N, 6.9329°E)
Time: 05:46:54
(UTC+00:00)

Helios 1A Rocket - Pass Details

Date: 08 March 2021
Orbit: 564 x 584 km, 98.3° (Epoch: 22 April)

Event Time Altitude Azimuth Distance (km) Brightness Sun altitude
Rises 17:53:13 0° 142° (SE) 2,761 6.0 -5.1°
Reaches altitude 10° 17:55:29 10° 133° (SE) 1,866 5.1 -5.5°
Maximum altitude 17:59:08 34° 68° (ENE) 945 3.6 -6.1°
Drops below altitude 10° 18:02:49 10° 3° (N) 1,872 5.5 -6.7°
Sets 18:05:05 0° 355° (N) 2,772 6.5 -7.1°
